GW3984 Weather Reports


Display with metric or nautical units.
time (UTC)temp
F
wind
direction
speed
MPH
gust
MPH
rain 1hr
in
rain 24hr
in
rain mn
in
humidity
%
barometer
mb
20260906033008 85 120 1.0 6.0 0.00 0.00 0.00 62 1014.0
20260906032343 86 125 1.0 10.0 0.00 0.00 0.00 62 1013.2
20260906031508 86 97 4.0 12.0 0.00 0.00 0.00 61 1013.9
20260906031401 86 113 3.0 10.0 0.00 0.00 0.00 61 1013.1
20260906030028 86 54 3.0 8.0 0.00 0.00 0.00 60 1013.6
20260906025325 87 142 1.0 8.0 0.00 0.00 0.00 60 1012.7
20260906024533 87 131 2.0 10.0 0.00 0.00 0.00 58 1013.2
20260906024311 88 99 2.0 8.0 0.00 0.00 0.00 58 1012.4
20260906023331 88 174 1.0 6.0 0.00 0.00 0.00 55 1012.0
20260906023025 87 148 3.0 8.0 0.00 0.00 0.00 54 1012.8
20260906022354 88 134 0.0 5.0 0.00 0.00 0.00 53 1011.7
20260906021535 87 145 1.0 5.0 0.00 0.00 0.00 52 1012.2
20260906021331 88 113 0.0 1.0 0.00 0.00 0.00 52 1011.5
20260906020315 87 123 0.0 3.0 0.00 0.00 0.00 53 1011.3
20260906020021 86 132 2.0 4.0 0.00 0.00 0.00 54 1012.0
20260906015317 84 172 0.0 0.0 0.00 0.00 0.00 61 1011.2
20260906014517 84 173 0.0 0.0 0.00 0.00 0.00 59 1011.9
20260906013211 85 172 0.0 0.0 0.00 0.00 0.00 59 1011.0
20260906013024 85 173 0.0 0.0 0.00 0.00 0.00 57 1011.7
20260906012205 86 172 0.0 0.0 0.00 0.00 0.00 56 1011.0
20260906011533 86 173 0.0 0.0 0.00 0.00 0.00 54 1011.8
20260906011201 87 172 0.0 0.0 0.00 0.00 0.00 53 1010.8
20260906010218 89 172 0.0 0.0 0.00 0.00 0.00 51 1010.7
20260906010032 89 173 0.0 2.0 0.00 0.00 0.00 49 1011.6
20260906005229 90 120 0.0 0.0 0.00 0.00 0.00 48 1010.7
20260906004529 90 134 0.0 4.0 0.00 0.00 0.00 47 1011.5
20260906004233 91 139 0.0 4.0 0.00 0.00 0.00 47 1010.5
20260906003221 91 161 0.0 4.0 0.00 0.00 0.00 47 1010.7
20260906003031 91 182 2.0 5.0 0.00 0.00 0.00 46 1011.5
20260906002238 92 127 0.0 4.0 0.00 0.00 0.00 47 1010.7
20260906001527 92 139 1.0 3.0 0.00 0.00 0.00 46 1011.6
20260906001243 92 142 0.0 6.0 0.00 0.00 0.00 46 1010.7
20260906000034 92 137 1.0 4.0 0.00 0.00 0.00 44 1011.5
20260905235138 93 131 0.0 1.0 0.00 0.00 0.00 45 1010.6
20260905234519 92 134 2.0 6.0 0.00 0.00 0.00 43 1011.6
20260905234124 93 146 1.0 4.0 0.00 0.00 0.00 44 1010.6
20260905233144 93 146 0.0 3.0 0.00 0.00 0.00 44 1010.7
20260905233019 93 65 1.0 5.0 0.00 0.00 0.00 44 1011.6
20260905232144 94 115 0.0 5.0 0.00 0.00 0.00 44 1010.5
20260905231510 93 87 1.0 8.0 0.00 0.00 0.00 43 1011.5
20260905230035 93 146 1.0 8.0 0.00 0.00 0.00 45 1011.5
20260905225952 93 145 1.0 6.0 0.00 0.00 0.00 45 1010.6
20260905224957 94 41 1.0 5.0 0.00 0.00 0.00 46 1010.7
20260905224532 94 149 2.0 7.0 0.00 0.00 0.00 44 1011.6
20260905223028 94 60 1.0 4.0 0.00 0.00 0.00 43 1011.7
20260905222855 95 153 0.0 4.0 0.00 0.00 0.00 44 1010.7
20260905221914 94 71 1.0 7.0 0.00 0.00 0.00 42 1010.8
20260905221528 94 156 1.0 9.0 0.00 0.00 0.00 41 1011.6
20260905220938 95 134 1.0 7.0 0.00 0.00 0.00 42 1010.8
20260905220027 95 123 2.0 9.0 0.00 0.00 0.00 43 1011.7
20260905215903 95 151 1.0 7.0 0.00 0.00 0.00 43 1010.8
20260905214919 95 122 1.0 5.0 0.00 0.00 0.00 44 1010.9
20260905214525 94 161 1.0 7.0 0.00 0.00 0.00 44 1011.7
20260905213938 94 133 0.0 4.0 0.00 0.00 0.00 45 1010.8
20260905213019 93 153 1.0 3.0 0.00 0.00 0.00 44 1011.9
20260905212929 93 125 0.0 3.0 0.00 0.00 0.00 45 1011.0
20260905211901 94 91 0.0 4.0 0.00 0.00 0.00 45 1011.2
20260905211515 93 138 1.0 4.0 0.00 0.00 0.00 45 1012.0
20260905210903 95 43 0.0 6.0 0.00 0.00 0.00 45 1011.2
20260905210023 93 43 0.0 5.0 0.00 0.00 0.00 44 1012.0
20260905205839 94 150 1.0 6.0 0.00 0.00 0.00 44 1011.2
20260905204806 94 143 1.0 4.0 0.00 0.00 0.00 44 1011.4
20260905204511 93 114 1.0 6.0 0.00 0.00 0.00 47 1012.3
20260905203004 92 159 2.0 7.0 0.00 0.00 0.00 48 1012.6
20260905202641 94 138 1.0 6.0 0.00 0.00 0.00 49 1011.8
20260905201628 94 47 0.0 6.0 0.00 0.00 0.00 51 1012.1
20260905201534 93 136 1.0 4.0 0.00 0.00 0.00 49 1012.9
20260905200642 94 123 0.0 6.0 0.00 0.00 0.00 48 1012.2
20260905200033 93 74 2.0 8.0 0.00 0.00 0.00 49 1013.1
20260905195644 95 91 0.0 6.0 0.00 0.00 0.00 53 1012.4
20260905194541 92 115 0.0 6.0 0.00 0.00 0.00 54 1013.3
20260905193506 93 48 0.0 3.0 0.00 0.00 0.00 52 1012.7
20260905193030 91 193 0.0 9.0 0.00 0.00 0.00 56 1013.7
20260905192520 92 179 1.0 5.0 0.00 0.00 0.00 54 1013.0
20260905191535 90 185 0.0 4.0 0.00 0.00 0.00 56 1013.1
20260905191517 90 115 2.0 5.0 0.00 0.00 0.00 56 1013.8
20260905190540 90 118 1.0 4.0 0.00 0.00 0.00 55 1013.3
20260905190030 92 122 1.0 6.0 0.00 0.00 0.00 53 1014.1
20260905185528 94 117 1.0 5.0 0.00 0.00 0.00 52 1013.5
20260905184528 92 134 1.0 9.0 0.00 0.00 0.00 52 1013.6
20260905184521 92 155 2.0 4.0 0.00 0.00 0.00 51 1014.5
20260905183011 91 163 2.0 6.0 0.00 0.00 0.00 55 1014.7
20260905182342 89 164 0.0 4.0 0.00 0.00 0.00 59 1014.0
20260905181535 89 213 0.0 8.0 0.00 0.00 0.00 58 1015.0
20260905180126 91 255 1.0 6.0 0.00 0.00 0.00 58 1014.4
20260905180030 90 170 2.0 8.0 0.00 0.00 0.00 55 1015.1
20260905175122 91 150 2.0 6.0 0.00 0.00 0.00 56 1014.5
20260905174528 91 78 3.0 7.0 0.00 0.00 0.00 54 1015.4
20260905174122 91 107 1.0 4.0 0.00 0.00 0.00 55 1014.6
20260905173133 93 117 0.0 4.0 0.00 0.00 0.00 54 1014.6
20260905173030 92 291 1.0 6.0 0.00 0.00 0.00 60 1015.4
20260905172121 90 52 0.0 3.0 0.00 0.00 0.00 62 1014.7
20260905171525 90 140 2.0 4.0 0.00 0.00 0.00 60 1015.5
20260905171104 90 85 0.0 7.0 0.00 0.00 0.00 60 1014.8
20260905170036 89 117 1.0 7.0 0.00 0.00 0.00 65 1014.9
20260905170031 88 138 2.0 9.0 0.00 0.00 0.00 63 1015.7
20260905165013 88 136 0.0 2.0 0.00 0.00 0.00 67 1015.0
20260905164517 88 163 1.0 3.0 0.00 0.00 0.00 64 1015.9
20260905164013 90 346 0.0 5.0 0.00 0.00 0.00 66 1015.2
20260905163014 89 105 1.0 7.0 0.00 0.00 0.00 66 1015.9
20260905162943 90 128 0.0 4.0 0.00 0.00 0.00 66 1015.2
20260905161932 88 162 0.0 5.0 0.00 0.00 0.00 68 1015.2
20260905161535 88 171 1.0 4.0 0.00 0.00 0.00 67 1016.1
20260905160933 88 94 0.0 5.0 0.00 0.00 0.00 67 1015.3
20260905160035 88 119 1.0 4.0 0.00 0.00 0.00 69 1016.0
20260905155909 88 113 0.0 3.0 0.00 0.00 0.00 68 1015.2
20260905154917 87 199 0.0 4.0 0.00 0.00 0.00 69 1015.2
20260905154534 87 352 0.0 4.0 0.00 0.00 0.00 70 1015.9
20260905153033 84 107 2.0 5.0 0.00 0.00 0.00 75 1015.8
20260905152739 85 113 0.0 4.0 0.00 0.00 0.00 74 1015.1
20260905151708 82 184 0.0 4.0 0.00 0.00 0.00 80 1015.1
20260905151527 82 123 1.0 6.0 0.00 0.00 0.00 80 1015.9
20260905150638 83 137 0.0 3.0 0.00 0.00 0.00 79 1015.0
20260905150033 82 120 1.0 4.0 0.00 0.00 0.00 80 1015.7
20260905145636 83 133 0.0 1.0 0.00 0.00 0.00 81 1015.0
20260905144611 83 95 0.0 3.0 0.00 0.00 0.00 80 1015.0
20260905144525 82 88 1.0 4.0 0.00 0.00 0.00 79 1015.8
20260905143628 82 93 0.0 5.0 0.00 0.00 0.00 82 1015.0
20260905143020 81 190 0.0 7.0 0.00 0.00 0.00 82 1015.8
20260905142630 81 143 0.0 5.0 0.00 0.00 0.00 84 1015.0
20260905141633 82 103 0.0 3.0 0.00 0.00 0.00 83 1014.9
20260905141547 81 94 1.0 4.0 0.00 0.00 0.00 83 1015.7
20260905140622 81 74 0.0 1.0 0.00 0.00 0.00 86 1014.8
20260905140031 80 256 0.0 2.0 0.00 0.00 0.00 85 1015.5
20260905135612 81 149 0.0 1.0 0.00 0.00 0.00 86 1014.7
20260905134625 80 121 0.0 1.0 0.00 0.00 0.00 89 1014.6
20260905134530 79 119 0.0 2.0 0.00 0.00 0.00 89 1015.3
20260905133622 78 126 0.0 0.0 0.00 0.00 0.00 92 1014.6
20260905133029 77 128 0.0 0.0 0.00 0.00 0.00 91 1015.2
20260905132613 78 126 0.0 0.0 0.00 0.00 0.00 93 1014.5
20260905131625 76 126 0.0 0.0 0.00 0.00 0.00 93 1014.4
20260905131528 75 128 0.0 0.0 0.00 0.00 0.00 92 1015.1
20260905130031 74 128 0.0 0.0 0.00 0.00 0.00 93 1015.0
20260905125541 74 126 0.0 0.0 0.00 0.00 0.00 93 1014.2
20260905124551 73 126 0.0 0.0 0.00 0.00 0.00 93 1014.1
20260905124527 72 128 0.0 0.0 0.00 0.00 0.00 93 1014.9
20260905123535 73 126 0.0 0.0 0.00 0.00 0.00 93 1014.0
20260905123019 72 128 0.0 0.0 0.00 0.00 0.00 93 1014.6
20260905121518 72 128 0.0 0.0 0.00 0.00 0.00 93 1014.6
20260905121359 73 126 0.0 0.0 0.00 0.00 0.00 93 1013.8
20260905120408 73 126 0.0 0.0 0.00 0.00 0.00 93 1013.8
20260905120022 72 128 0.0 0.0 0.00 0.00 0.00 92 1014.5
20260905114525 72 128 0.0 0.0 0.00 0.00 0.00 92 1014.6
20260905114239 73 126 0.0 0.0 0.00 0.00 0.00 93 1013.8
20260905113258 73 126 0.0 0.0 0.00 0.00 0.00 93 1013.7
20260905113012 72 128 0.0 0.0 0.00 0.00 0.00 92 1014.4
20260905112310 73 126 0.0 0.0 0.00 0.00 0.00 92 1013.7
20260905111508 73 128 0.0 0.0 0.00 0.00 0.00 92 1014.4
20260905111248 73 126 0.0 0.0 0.00 0.00 0.00 92 1013.7
20260905110235 73 126 0.0 0.0 0.00 0.00 0.00 92 1013.7
20260905110008 73 128 0.0 0.0 0.00 0.00 0.00 92 1014.4
20260905105246 74 126 0.0 0.0 0.00 0.00 0.00 92 1013.6
20260905104529 73 128 0.0 0.0 0.00 0.00 0.00 92 1014.3
20260905104225 74 126 0.0 0.0 0.00 0.00 0.00 92 1013.6
20260905103223 74 126 0.0 0.0 0.00 0.00 0.00 92 1013.5
20260905103024 73 128 0.0 0.0 0.00 0.00 0.00 91 1014.2
20260905102156 74 126 0.0 0.0 0.00 0.00 0.00 92 1013.5
20260905101522 74 128 0.0 0.0 0.00 0.00 0.00 91 1014.3
20260905101158 74 126 0.0 0.0 0.00 0.00 0.00 92 1013.6
20260905100153 75 126 0.0 0.0 0.00 0.00 0.00 92 1013.6
20260905100023 74 128 0.0 0.0 0.00 0.00 0.00 91 1014.3
20260905095158 75 126 0.0 0.0 0.00 0.00 0.00 91 1013.5
20260905094518 74 128 0.0 0.0 0.00 0.00 0.00 91 1014.1
20260905094216 75 126 0.0 0.0 0.00 0.00 0.00 91 1013.5
20260905093156 75 126 0.0 0.0 0.00 0.00 0.00 91 1013.4
20260905093016 75 128 0.0 0.0 0.00 0.00 0.00 90 1014.1
20260905092132 76 126 0.0 0.0 0.00 0.00 0.00 91 1013.4
20260905091512 75 128 0.0 0.0 0.00 0.00 0.00 90 1014.1
20260905091141 76 126 0.0 0.0 0.00 0.00 0.00 90 1013.5
20260905090134 76 126 0.0 0.0 0.00 0.00 0.00 90 1013.4
20260905090009 76 128 0.0 0.0 0.00 0.00 0.00 89 1014.1
20260905085122 77 126 0.0 0.0 0.00 0.00 0.00 89 1013.5
20260905084526 77 128 0.0 0.0 0.00 0.00 0.00 88 1014.2
20260905084132 78 126 0.0 0.0 0.00 0.00 0.00 88 1013.5
20260905083151 78 126 0.0 0.0 0.00 0.00 0.00 88 1013.5
20260905083034 78 128 0.0 2.0 0.00 0.00 0.00 87 1014.2
20260905082200 78 140 0.0 0.0 0.00 0.00 0.00 87 1013.6
20260905081528 78 119 0.0 2.0 0.00 0.00 0.00 87 1014.3
20260905081136 78 105 0.0 0.0 0.00 0.00 0.00 87 1013.6
20260905080028 78 146 0.0 0.0 0.00 0.00 0.00 85 1014.4
20260905075025 79 106 0.0 0.0 0.00 0.00 0.00 85 1013.8
20260905074521 79 122 0.0 0.0 0.00 0.00 0.00 85 1014.5
20260905074039 79 134 0.0 0.0 0.00 0.00 0.00 85 1013.9
20260905073025 79 94 1.0 3.0 0.00 0.00 0.00 84 1014.7
20260905071913 79 114 0.0 4.0 0.00 0.00 0.00 85 1014.0
20260905071525 79 104 1.0 6.0 0.00 0.00 0.00 84 1014.7
20260905070927 79 142 0.0 3.0 0.00 0.00 0.00 85 1014.0
20260905070016 79 171 1.0 3.0 0.00 0.00 0.00 84 1014.8
20260905065853 80 143 0.0 4.0 0.00 0.00 0.00 84 1014.1
20260905064837 80 136 0.0 4.0 0.00 0.00 0.00 84 1014.1
20260905064531 79 157 2.0 4.0 0.00 0.00 0.00 83 1014.8
20260905063811 80 136 0.0 4.0 0.00 0.00 0.00 83 1014.1
20260905063030 79 155 1.0 6.0 0.00 0.00 0.00 82 1014.8
20260905061634 80 57 0.0 3.0 0.00 0.00 0.00 81 1014.2
20260905061531 79 167 1.0 4.0 0.00 0.00 0.00 81 1015.0
20260905060621 80 162 0.0 0.0 0.00 0.00 0.00 79 1014.2
20260905060041 80 120 1.0 6.0 0.00 0.00 0.00 78 1014.9
20260905055549 80 59 0.0 3.0 0.00 0.00 0.00 78 1014.2
20260905054536 80 128 0.0 4.0 0.00 0.00 0.00 75 1015.0
20260905054530 80 94 0.0 3.0 0.00 0.00 0.00 76 1014.2
20260905053524 80 135 0.0 2.0 0.00 0.00 0.00 75 1014.1
20260905053023 80 107 1.0 4.0 0.00 0.00 0.00 74 1014.9
20260905052451 81 117 0.0 3.0 0.00 0.00 0.00 74 1014.1
20260905051528 80 114 2.0 4.0 0.00 0.00 0.00 73 1014.9
20260905051422 81 105 0.0 5.0 0.00 0.00 0.00 73 1014.1
20260905050403 81 128 0.0 5.0 0.00 0.00 0.00 73 1014.1
20260905050018 80 88 1.0 7.0 0.00 0.00 0.00 72 1014.9
20260905045357 81 101 0.0 0.0 0.00 0.00 0.00 72 1014.1
20260905044514 80 131 0.0 2.0 0.00 0.00 0.00 72 1014.9
20260905043212 81 105 0.0 0.0 0.00 0.00 0.00 72 1014.1
20260905043010 81 157 1.0 2.0 0.00 0.00 0.00 71 1014.9
20260905042218 81 104 0.0 0.0 0.00 0.00 0.00 71 1014.1
20260905041532 81 75 1.0 4.0 0.00 0.00 0.00 70 1014.8
20260905041237 82 116 0.0 3.0 0.00 0.00 0.00 71 1014.0
20260905040240 81 160 0.0 1.0 0.00 0.00 0.00 71 1014.1
20260905040034 81 152 0.0 5.0 0.00 0.00 0.00 70 1014.9
20260905034529 81 125 0.0 3.0 0.00 0.00 0.00 70 1014.9
20260905034118 82 108 0.0 3.0 0.00 0.00 0.00 70 1014.1